Year,Month,Day,Hour,Minute,Value (Times are PST for windgust in km/hr)
2017,10,17,00,00,11.30
2017,10,17,00,01,9.60
2017,10,17,00,02,9.60
2017,10,17,00,03,16.10
2017,10,17,00,04,16.10
2017,10,17,00,05,22.50
2017,10,17,00,06,8.10
2017,10,17,00,07,24.20
2017,10,17,00,08,19.30
2017,10,17,00,09,20.90
2017,10,17,00,10,9.60
2017,10,17,00,11,8.10
2017,10,17,00,12,9.60
2017,10,17,00,13,16.10
2017,10,17,00,14,16.10
2017,10,17,00,15,27.40
2017,10,17,00,16,12.90
2017,10,17,00,17,8.10
2017,10,17,00,18,9.60
2017,10,17,00,19,4.80
2017,10,17,00,20,4.80
2017,10,17,00,21,19.30
2017,10,17,00,22,11.30
2017,10,17,00,23,17.70
2017,10,17,00,24,20.90
2017,10,17,00,25,9.60
2017,10,17,00,26,6.40
2017,10,17,00,27,1.60
2017,10,17,00,28,12.90
2017,10,17,00,29,9.60
2017,10,17,00,30,14.50
2017,10,17,00,31,11.30
2017,10,17,00,32,17.70
2017,10,17,00,33,8.10
2017,10,17,00,34,19.30
2017,10,17,00,35,16.10
2017,10,17,00,36,14.50
2017,10,17,00,37,11.30
2017,10,17,00,38,12.90
2017,10,17,00,39,16.10
2017,10,17,00,40,17.70
2017,10,17,00,41,6.40
2017,10,17,00,42,4.80
2017,10,17,00,43,12.90
2017,10,17,00,44,6.40
2017,10,17,00,45,8.10
2017,10,17,00,46,14.50
2017,10,17,00,47,11.30
2017,10,17,00,48,17.70
2017,10,17,00,49,16.10
2017,10,17,00,50,6.40
2017,10,17,00,51,3.20
2017,10,17,00,52,11.30
2017,10,17,00,53,14.50
2017,10,17,00,54,11.30
2017,10,17,00,55,6.40
2017,10,17,00,56,11.30
2017,10,17,00,57,11.30
2017,10,17,00,58,12.90
2017,10,17,00,59,12.90
2017,10,17,01,00,9.60
2017,10,17,01,01,11.30
2017,10,17,01,02,4.80
2017,10,17,01,03,6.40
2017,10,17,01,04,12.90
2017,10,17,01,05,11.30
2017,10,17,01,06,11.30
2017,10,17,01,07,6.40
2017,10,17,01,08,11.30
2017,10,17,01,09,4.80
2017,10,17,01,10,11.30
2017,10,17,01,11,8.10
2017,10,17,01,12,3.20
2017,10,17,01,13,22.50
2017,10,17,01,14,16.10
2017,10,17,01,15,12.90
2017,10,17,01,16,12.90
2017,10,17,01,17,9.60
2017,10,17,01,18,33.80
2017,10,17,01,19,22.50
2017,10,17,01,20,17.70
2017,10,17,01,21,4.80
2017,10,17,01,22,11.30
2017,10,17,01,23,11.30
2017,10,17,01,24,6.40
2017,10,17,01,25,17.70
2017,10,17,01,26,27.40
2017,10,17,01,27,9.60
2017,10,17,01,28,11.30
2017,10,17,01,29,9.60
2017,10,17,01,30,11.30
2017,10,17,01,31,11.30
2017,10,17,01,32,12.90
2017,10,17,01,33,14.50
2017,10,17,01,34,8.10
2017,10,17,01,35,4.80
2017,10,17,01,36,12.90
2017,10,17,01,37,11.30
2017,10,17,01,38,3.20
2017,10,17,01,39,4.80
2017,10,17,01,40,4.80
2017,10,17,01,41,4.80
2017,10,17,01,42,4.80
2017,10,17,01,43,17.70
2017,10,17,01,44,4.80
2017,10,17,01,45,19.30
2017,10,17,01,46,16.10
2017,10,17,01,47,16.10
2017,10,17,01,48,12.90
2017,10,17,01,49,4.80
2017,10,17,01,50,4.80
2017,10,17,01,51,14.50
2017,10,17,01,52,11.30
2017,10,17,01,53,8.10
2017,10,17,01,54,16.10
2017,10,17,01,55,11.30
2017,10,17,01,56,4.80
2017,10,17,01,57,20.90
2017,10,17,01,58,11.30
2017,10,17,01,59,12.90
2017,10,17,02,00,12.90
2017,10,17,02,01,3.20
2017,10,17,02,02,3.20
2017,10,17,02,03,6.40
2017,10,17,02,04,8.10
2017,10,17,02,05,8.10
2017,10,17,02,06,12.90
2017,10,17,02,07,12.90
2017,10,17,02,08,8.10
2017,10,17,02,09,9.60
2017,10,17,02,10,11.30
2017,10,17,02,11,11.30
2017,10,17,02,12,14.50
2017,10,17,02,13,14.50
2017,10,17,02,14,24.20
2017,10,17,02,15,12.90
2017,10,17,02,16,6.40
2017,10,17,02,17,9.60
2017,10,17,02,18,17.70
2017,10,17,02,19,6.40
2017,10,17,02,20,14.50
2017,10,17,02,21,4.80
2017,10,17,02,22,19.30
2017,10,17,02,23,9.60
2017,10,17,02,24,14.50
2017,10,17,02,25,11.30
2017,10,17,02,26,19.30
2017,10,17,02,27,19.30
2017,10,17,02,28,8.10
2017,10,17,02,29,14.50
2017,10,17,02,30,6.40
2017,10,17,02,31,14.50
2017,10,17,02,32,27.40
2017,10,17,02,33,27.40
2017,10,17,02,34,11.30
2017,10,17,02,35,11.30
2017,10,17,02,36,12.90
2017,10,17,02,37,12.90
2017,10,17,02,38,12.90
2017,10,17,02,39,9.60
2017,10,17,02,40,12.90
2017,10,17,02,41,16.10
2017,10,17,02,42,14.50
2017,10,17,02,43,12.90
2017,10,17,02,44,17.70
2017,10,17,02,45,14.50
2017,10,17,02,46,11.30
2017,10,17,02,47,11.30
2017,10,17,02,48,8.10
2017,10,17,02,49,6.40
2017,10,17,02,50,16.10
2017,10,17,02,51,14.50
2017,10,17,02,52,19.30
2017,10,17,02,53,22.50
2017,10,17,02,54,11.30
2017,10,17,02,55,14.50
2017,10,17,02,56,11.30
2017,10,17,02,57,6.40
2017,10,17,02,58,4.80
2017,10,17,02,59,4.80
2017,10,17,03,00,3.20
2017,10,17,03,01,3.20
2017,10,17,03,02,6.40
2017,10,17,03,03,4.80
2017,10,17,03,04,4.80
2017,10,17,03,05,3.20
2017,10,17,03,06,1.60
2017,10,17,03,07,1.60
2017,10,17,03,08,3.20
2017,10,17,03,09,3.20
2017,10,17,03,10,1.60
2017,10,17,03,11,3.20
2017,10,17,03,12,3.20
2017,10,17,03,13,3.20
2017,10,17,03,14,4.80
2017,10,17,03,15,4.80
2017,10,17,03,16,9.60
2017,10,17,03,17,8.10
2017,10,17,03,18,6.40
2017,10,17,03,19,6.40
2017,10,17,03,20,8.10
2017,10,17,03,21,6.40
2017,10,17,03,22,4.80
2017,10,17,03,23,4.80
2017,10,17,03,24,8.10
2017,10,17,03,25,4.80
2017,10,17,03,26,3.20
2017,10,17,03,27,3.20
2017,10,17,03,28,3.20
2017,10,17,03,29,3.20
2017,10,17,03,30,3.20
2017,10,17,03,31,6.40
2017,10,17,03,32,4.80
2017,10,17,03,33,6.40
2017,10,17,03,34,4.80
2017,10,17,03,35,9.60
2017,10,17,03,36,4.80
2017,10,17,03,37,4.80
2017,10,17,03,38,3.20
2017,10,17,03,39,3.20
2017,10,17,03,40,4.80
2017,10,17,03,41,3.20
2017,10,17,03,42,3.20
2017,10,17,03,43,4.80
2017,10,17,03,44,1.60
2017,10,17,03,45,1.60
2017,10,17,03,57,3.20
2017,10,17,03,58,3.20
2017,10,17,04,02,3.20
2017,10,17,04,03,3.20
2017,10,17,04,04,4.80
2017,10,17,04,05,4.80
2017,10,17,04,06,3.20
2017,10,17,04,10,4.80
2017,10,17,04,11,11.30
2017,10,17,04,12,16.10
2017,10,17,04,13,6.40
2017,10,17,04,14,9.60
2017,10,17,04,15,22.50
2017,10,17,04,16,27.40
2017,10,17,04,17,29.00
2017,10,17,04,18,25.70
2017,10,17,04,19,22.50
2017,10,17,04,20,33.80
2017,10,17,04,21,25.70
2017,10,17,04,22,57.90
2017,10,17,04,23,48.30
2017,10,17,04,24,22.50
2017,10,17,04,25,40.20
2017,10,17,04,26,40.20
2017,10,17,04,27,27.40
2017,10,17,04,28,38.60
2017,10,17,04,29,48.30
2017,10,17,04,30,38.60
2017,10,17,04,31,38.60
2017,10,17,04,32,22.50
2017,10,17,04,33,30.60
2017,10,17,04,34,45.10
2017,10,17,04,35,40.20
2017,10,17,04,36,45.10
2017,10,17,04,37,59.50
2017,10,17,04,38,48.30
2017,10,17,04,39,40.20
2017,10,17,04,40,37.00
2017,10,17,04,41,30.60
2017,10,17,04,42,46.70
2017,10,17,04,43,30.60
2017,10,17,04,44,37.00
2017,10,17,04,45,40.20
2017,10,17,04,46,27.40
2017,10,17,04,47,24.20
2017,10,17,04,48,33.80
2017,10,17,04,49,35.40
2017,10,17,04,50,40.20
2017,10,17,04,51,29.00
2017,10,17,04,52,30.60
2017,10,17,04,53,38.60
2017,10,17,04,54,35.40
2017,10,17,04,55,40.20
2017,10,17,04,56,32.20
2017,10,17,04,57,19.30
2017,10,17,04,58,32.20
2017,10,17,04,59,40.20
2017,10,17,05,00,22.50
2017,10,17,05,01,32.20
2017,10,17,05,02,43.50
2017,10,17,05,03,33.80
2017,10,17,05,04,51.50
2017,10,17,05,05,33.80
2017,10,17,05,06,48.30
2017,10,17,05,07,41.80
2017,10,17,05,08,38.60
2017,10,17,05,09,61.20
2017,10,17,05,10,53.10
2017,10,17,05,11,41.80
2017,10,17,05,12,43.50
2017,10,17,05,13,41.80
2017,10,17,05,14,37.00
2017,10,17,05,15,40.20
2017,10,17,05,16,25.70
2017,10,17,05,17,56.30
2017,10,17,05,18,64.40
2017,10,17,05,19,48.30
2017,10,17,05,20,43.50
2017,10,17,05,21,27.40
2017,10,17,05,22,40.20
2017,10,17,05,23,33.80
2017,10,17,05,24,35.40
2017,10,17,05,25,43.50
2017,10,17,05,26,30.60
2017,10,17,05,27,20.90
2017,10,17,05,28,19.30
2017,10,17,05,29,29.00
2017,10,17,05,30,27.40
2017,10,17,05,31,30.60
2017,10,17,05,32,19.30
2017,10,17,05,33,25.70
2017,10,17,05,34,25.70
2017,10,17,05,35,22.50
2017,10,17,05,36,22.50
2017,10,17,05,37,27.40
2017,10,17,05,38,20.90
2017,10,17,05,39,16.10
2017,10,17,05,40,25.70
2017,10,17,05,41,20.90
2017,10,17,05,42,20.90
2017,10,17,05,43,24.20
2017,10,17,05,44,32.20
2017,10,17,05,45,24.20
2017,10,17,05,46,24.20
2017,10,17,05,47,20.90
2017,10,17,05,48,19.30
2017,10,17,05,49,22.50
2017,10,17,05,50,20.90
2017,10,17,05,51,14.50
2017,10,17,05,52,9.60
2017,10,17,05,53,8.10
2017,10,17,05,54,11.30
2017,10,17,05,55,11.30
2017,10,17,05,56,38.60
2017,10,17,05,57,35.40
2017,10,17,05,58,45.10
2017,10,17,05,59,20.90
2017,10,17,06,00,25.70
2017,10,17,06,01,20.90
2017,10,17,06,02,33.80
2017,10,17,06,03,29.00
2017,10,17,06,04,25.70
2017,10,17,06,05,17.70
2017,10,17,06,06,29.00
2017,10,17,06,07,22.50
2017,10,17,06,08,20.90
2017,10,17,06,09,16.10
2017,10,17,06,10,19.30
2017,10,17,06,11,20.90
2017,10,17,06,12,30.60
2017,10,17,06,13,22.50
2017,10,17,06,14,29.00
2017,10,17,06,15,37.00
2017,10,17,06,16,14.50
2017,10,17,06,17,14.50
2017,10,17,06,18,8.10
2017,10,17,06,19,11.30
2017,10,17,06,20,19.30
2017,10,17,06,21,11.30
2017,10,17,06,22,11.30
2017,10,17,06,23,19.30
2017,10,17,06,24,22.50
2017,10,17,06,25,17.70
2017,10,17,06,26,30.60
2017,10,17,06,27,27.40
2017,10,17,06,28,11.30
2017,10,17,06,29,22.50
2017,10,17,06,30,33.80
2017,10,17,06,31,38.60
2017,10,17,06,32,27.40
2017,10,17,06,33,24.20
2017,10,17,06,34,29.00
2017,10,17,06,35,17.70
2017,10,17,06,36,20.90
2017,10,17,06,37,25.70
2017,10,17,06,38,22.50
2017,10,17,06,39,24.20
2017,10,17,06,40,19.30
2017,10,17,06,41,30.60
2017,10,17,06,42,24.20
2017,10,17,06,43,22.50
2017,10,17,06,44,25.70
2017,10,17,06,45,30.60
2017,10,17,06,46,27.40
2017,10,17,06,47,22.50
2017,10,17,06,48,19.30
2017,10,17,06,49,11.30
2017,10,17,06,50,9.60
2017,10,17,06,51,16.10
2017,10,17,06,52,12.90
2017,10,17,06,53,20.90
2017,10,17,06,54,20.90
2017,10,17,06,55,24.20
2017,10,17,06,56,16.10
2017,10,17,06,57,27.40
2017,10,17,06,58,20.90
2017,10,17,06,59,14.50
2017,10,17,07,00,11.30
2017,10,17,07,01,20.90
2017,10,17,07,02,24.20
2017,10,17,07,03,19.30
2017,10,17,07,04,17.70
2017,10,17,07,05,17.70
2017,10,17,07,06,17.70
2017,10,17,07,07,19.30
2017,10,17,07,08,24.20
2017,10,17,07,09,24.20
2017,10,17,07,10,24.20
2017,10,17,07,11,19.30
2017,10,17,07,12,12.90
2017,10,17,07,13,33.80
2017,10,17,07,14,24.20
2017,10,17,07,15,22.50
2017,10,17,07,16,29.00
2017,10,17,07,17,12.90
2017,10,17,07,18,11.30
2017,10,17,07,19,19.30
2017,10,17,07,20,12.90
2017,10,17,07,21,11.30
2017,10,17,07,22,12.90
2017,10,17,07,23,8.10
2017,10,17,07,24,16.10
2017,10,17,07,25,20.90
2017,10,17,07,26,16.10
2017,10,17,07,27,14.50
2017,10,17,07,28,9.60
2017,10,17,07,29,11.30
2017,10,17,07,30,16.10
2017,10,17,07,31,20.90
2017,10,17,07,32,19.30
2017,10,17,07,33,12.90
2017,10,17,07,34,25.70
2017,10,17,07,35,20.90
2017,10,17,07,36,6.40
2017,10,17,07,37,9.60
2017,10,17,07,38,14.50
2017,10,17,07,39,16.10
2017,10,17,07,40,12.90
2017,10,17,07,41,12.90
2017,10,17,07,42,16.10
2017,10,17,07,43,12.90
2017,10,17,07,44,11.30
2017,10,17,07,45,11.30
2017,10,17,07,46,12.90
2017,10,17,07,47,6.40
2017,10,17,07,48,9.60
2017,10,17,07,49,11.30
2017,10,17,07,50,8.10
2017,10,17,07,51,8.10
2017,10,17,07,52,9.60
2017,10,17,07,53,9.60
2017,10,17,07,54,9.60
2017,10,17,07,55,4.80
2017,10,17,07,56,12.90
2017,10,17,07,57,12.90
2017,10,17,07,58,14.50
2017,10,17,07,59,6.40
2017,10,17,08,00,6.40
2017,10,17,08,01,22.50
2017,10,17,08,02,20.90
2017,10,17,08,03,12.90
2017,10,17,08,04,29.00
2017,10,17,08,05,19.30
2017,10,17,08,06,6.40
2017,10,17,08,07,12.90
2017,10,17,08,08,12.90
2017,10,17,08,09,11.30
2017,10,17,08,10,12.90
2017,10,17,08,11,12.90
2017,10,17,08,12,12.90
2017,10,17,08,13,4.80
2017,10,17,08,14,4.80
2017,10,17,15,02,4.80
2017,10,17,15,03,6.40
2017,10,17,15,04,4.80
2017,10,17,15,05,3.20
2017,10,17,15,06,1.60
2017,10,17,15,07,1.60
2017,10,17,15,08,1.60
2017,10,17,15,09,6.40
2017,10,17,15,10,3.20
2017,10,17,15,11,4.80
2017,10,17,15,12,4.80
2017,10,17,15,13,11.30
2017,10,17,15,14,4.80
2017,10,17,15,15,8.10
2017,10,17,15,16,8.10
2017,10,17,15,17,6.40
2017,10,17,15,18,3.20
2017,10,17,15,19,6.40
2017,10,17,15,20,4.80
2017,10,17,15,21,4.80
2017,10,17,15,22,4.80
2017,10,17,15,23,3.20
2017,10,17,15,24,4.80
2017,10,17,15,25,6.40
2017,10,17,15,26,4.80
2017,10,17,15,27,3.20
2017,10,17,15,28,1.60
2017,10,17,15,29,1.60
2017,10,17,15,30,6.40
2017,10,17,15,31,6.40
2017,10,17,15,32,6.40
2017,10,17,15,33,4.80
2017,10,17,15,34,3.20
2017,10,17,15,35,3.20
2017,10,17,15,36,3.20
2017,10,17,15,37,4.80
2017,10,17,15,38,4.80
2017,10,17,15,39,3.20
2017,10,17,15,40,3.20
2017,10,17,15,41,3.20
2017,10,17,15,42,3.20
2017,10,17,15,43,3.20
2017,10,17,15,45,1.60
2017,10,17,15,46,4.80
2017,10,17,15,47,4.80
2017,10,17,15,48,6.40
2017,10,17,15,49,4.80
2017,10,17,15,50,6.40
2017,10,17,15,51,3.20
2017,10,17,15,52,3.20
2017,10,17,15,53,4.80
2017,10,17,15,54,4.80
2017,10,17,15,55,1.60
2017,10,17,15,56,4.80
2017,10,17,15,57,4.80
2017,10,17,15,58,3.20
2017,10,17,15,59,4.80
2017,10,17,16,00,4.80
2017,10,17,16,01,1.60
2017,10,17,16,03,3.20
2017,10,17,16,04,3.20
2017,10,17,16,05,3.20
2017,10,17,16,06,4.80
2017,10,17,16,07,4.80
2017,10,17,16,08,4.80
2017,10,17,16,09,4.80
2017,10,17,16,10,4.80
2017,10,17,16,11,4.80
2017,10,17,16,12,3.20
2017,10,17,16,13,3.20
2017,10,17,16,14,3.20
2017,10,17,16,15,3.20
2017,10,17,16,25,3.20
2017,10,17,16,26,3.20
2017,10,17,16,27,3.20
2017,10,17,16,28,6.40
2017,10,17,16,29,4.80
2017,10,17,16,30,4.80
2017,10,17,16,31,3.20
2017,10,17,16,32,3.20
2017,10,17,16,33,4.80
2017,10,17,16,34,3.20
2017,10,17,16,35,1.60
2017,10,17,16,36,3.20
2017,10,17,16,37,4.80
2017,10,17,16,38,3.20
2017,10,17,16,39,3.20
2017,10,17,16,40,3.20
2017,10,17,16,41,3.20
2017,10,17,16,42,4.80
2017,10,17,16,43,4.80
2017,10,17,16,44,3.20
2017,10,17,16,45,4.80
2017,10,17,16,46,4.80
2017,10,17,16,47,4.80
2017,10,17,16,48,4.80
2017,10,17,16,49,3.20
2017,10,17,16,50,4.80
2017,10,17,16,51,4.80
2017,10,17,16,52,4.80
2017,10,17,16,53,3.20
2017,10,17,16,54,1.60
2017,10,17,16,55,3.20
2017,10,17,16,56,4.80
2017,10,17,16,57,4.80
2017,10,17,16,58,4.80
2017,10,17,16,59,4.80
2017,10,17,17,00,6.40
2017,10,17,17,01,4.80
2017,10,17,17,02,3.20
2017,10,17,17,03,4.80
2017,10,17,17,04,4.80
2017,10,17,17,05,4.80
2017,10,17,17,06,6.40
2017,10,17,17,07,6.40
2017,10,17,17,08,3.20
2017,10,17,17,09,1.60
2017,10,17,17,10,1.60
2017,10,17,17,11,3.20
2017,10,17,17,12,3.20
2017,10,17,17,13,3.20
2017,10,17,17,14,3.20
2017,10,17,17,15,1.60
2017,10,17,17,19,1.60
2017,10,17,17,21,3.20
2017,10,17,17,22,3.20
2017,10,17,17,23,3.20
2017,10,17,17,24,3.20
2017,10,17,17,25,3.20
2017,10,17,17,26,3.20
2017,10,17,17,27,4.80
2017,10,17,17,28,4.80
2017,10,17,17,29,3.20
2017,10,17,17,30,4.80
2017,10,17,17,31,4.80
2017,10,17,17,32,3.20
2017,10,17,17,33,4.80
2017,10,17,17,34,4.80
2017,10,17,17,35,4.80
2017,10,17,17,36,3.20
2017,10,17,17,37,3.20
2017,10,17,17,38,3.20
2017,10,17,17,39,3.20
2017,10,17,17,40,3.20
2017,10,17,17,43,1.60
2017,10,17,17,44,3.20
2017,10,17,17,51,1.60
2017,10,17,17,52,4.80
2017,10,17,17,53,3.20
2017,10,17,17,54,3.20
2017,10,17,17,55,3.20
2017,10,17,17,56,3.20
2017,10,17,17,57,3.20
2017,10,17,17,58,1.60
2017,10,17,17,59,1.60
2017,10,17,18,00,3.20
2017,10,17,18,01,1.60
2017,10,17,18,02,1.60
2017,10,17,18,03,1.60
2017,10,17,18,04,3.20
2017,10,17,18,06,1.60
2017,10,17,18,10,3.20
2017,10,17,18,11,1.60
2017,10,17,18,12,1.60
2017,10,17,18,13,3.20
2017,10,17,18,14,4.80
2017,10,17,18,15,8.10
2017,10,17,18,16,8.10
2017,10,17,18,17,8.10
2017,10,17,18,18,8.10
2017,10,17,18,19,6.40
2017,10,17,18,20,8.10
2017,10,17,18,21,4.80
2017,10,17,18,22,6.40
2017,10,17,18,23,4.80
2017,10,17,18,24,4.80
2017,10,17,18,25,3.20
2017,10,17,18,26,3.20
2017,10,17,18,27,1.60
2017,10,17,18,28,1.60
2017,10,17,18,29,1.60
2017,10,17,18,32,1.60
2017,10,17,18,33,1.60
2017,10,17,18,36,3.20
2017,10,17,18,37,6.40
2017,10,17,18,38,4.80
2017,10,17,18,39,3.20
2017,10,17,18,40,4.80
2017,10,17,18,41,4.80
2017,10,17,18,42,4.80
2017,10,17,18,43,4.80
2017,10,17,18,44,3.20
2017,10,17,18,45,6.40
2017,10,17,18,46,3.20
2017,10,17,18,48,1.60
2017,10,17,18,55,3.20
2017,10,17,18,56,4.80
2017,10,17,18,57,4.80
2017,10,17,18,58,6.40
2017,10,17,18,59,6.40
2017,10,17,19,00,4.80
2017,10,17,19,01,4.80
2017,10,17,19,02,6.40
2017,10,17,19,03,9.60
2017,10,17,19,04,8.10
2017,10,17,19,05,8.10
2017,10,17,19,06,6.40
2017,10,17,19,07,6.40
2017,10,17,19,08,8.10
2017,10,17,19,09,6.40
2017,10,17,19,10,6.40
2017,10,17,19,11,4.80
2017,10,17,19,12,3.20
2017,10,17,19,13,3.20
2017,10,17,19,14,1.60
2017,10,17,19,15,3.20
2017,10,17,19,16,4.80
2017,10,17,19,17,8.10
2017,10,17,19,18,8.10
2017,10,17,19,19,8.10
2017,10,17,19,20,6.40
2017,10,17,19,21,6.40
2017,10,17,19,22,4.80
2017,10,17,19,23,4.80
2017,10,17,19,24,3.20
2017,10,17,19,25,3.20
2017,10,17,19,26,3.20
2017,10,17,19,27,3.20
2017,10,17,19,28,4.80
2017,10,17,19,29,1.60
2017,10,17,19,30,1.60
2017,10,17,19,45,1.60
2017,10,17,19,46,1.60
2017,10,17,19,47,1.60
2017,10,17,19,48,3.20
2017,10,17,19,49,4.80
2017,10,17,19,50,3.20
2017,10,17,19,51,4.80
2017,10,17,19,52,3.20
2017,10,17,19,53,4.80
2017,10,17,19,54,3.20
2017,10,17,19,55,4.80
2017,10,17,19,56,4.80
2017,10,17,19,57,3.20
2017,10,17,19,58,4.80
2017,10,17,19,59,4.80
2017,10,17,20,00,4.80
2017,10,17,20,01,3.20
2017,10,17,20,02,3.20
2017,10,17,20,03,4.80
2017,10,17,20,04,3.20
2017,10,17,20,05,1.60
2017,10,17,20,06,1.60
2017,10,17,20,07,1.60
2017,10,17,20,09,1.60
2017,10,17,20,10,3.20
2017,10,17,20,11,3.20
2017,10,17,20,12,1.60
2017,10,17,20,13,1.60
2017,10,17,20,21,3.20
2017,10,17,20,22,1.60
2017,10,17,20,23,1.60
2017,10,17,20,28,1.60
2017,10,17,20,29,1.60
2017,10,17,20,30,3.20
2017,10,17,20,31,3.20
2017,10,17,20,32,3.20
2017,10,17,20,33,3.20
2017,10,17,20,34,3.20
2017,10,17,20,35,3.20
2017,10,17,20,36,3.20
2017,10,17,20,37,1.60
2017,10,17,20,38,3.20
2017,10,17,20,39,1.60
2017,10,17,20,41,1.60
2017,10,17,20,42,3.20
2017,10,17,20,43,3.20
2017,10,17,20,44,3.20
2017,10,17,20,45,1.60
2017,10,17,20,46,1.60
2017,10,17,20,47,3.20
2017,10,17,20,48,3.20
2017,10,17,20,49,1.60
2017,10,17,20,50,1.60
2017,10,17,20,51,1.60
2017,10,17,20,52,3.20
2017,10,17,20,53,1.60
2017,10,17,20,58,1.60
2017,10,17,20,59,1.60
2017,10,17,21,03,1.60
2017,10,17,21,04,1.60
2017,10,17,21,10,1.60
2017,10,17,21,11,3.20
2017,10,17,21,12,1.60
2017,10,17,21,14,1.60
2017,10,17,21,15,3.20
2017,10,17,21,16,3.20
2017,10,17,21,17,3.20
2017,10,17,21,18,1.60
2017,10,17,21,19,3.20
2017,10,17,21,20,1.60
2017,10,17,21,21,1.60
2017,10,17,21,22,1.60
2017,10,17,21,33,1.60
2017,10,17,21,34,1.60
2017,10,17,21,41,1.60
2017,10,17,21,42,1.60
2017,10,17,21,50,1.60
2017,10,17,21,51,3.20
2017,10,17,21,52,3.20
2017,10,17,21,53,1.60
2017,10,17,21,54,1.60
2017,10,17,21,55,3.20
2017,10,17,21,56,3.20
2017,10,17,21,57,3.20
2017,10,17,21,58,3.20
2017,10,17,21,59,1.60
2017,10,17,22,04,3.20
2017,10,17,22,05,1.60
2017,10,17,23,13,4.80
2017,10,17,23,14,3.20
2017,10,17,23,15,4.80
2017,10,17,23,16,3.20
2017,10,17,23,17,3.20
2017,10,17,23,18,3.20
2017,10,17,23,19,4.80
2017,10,17,23,20,3.20
2017,10,17,23,21,3.20
2017,10,17,23,22,3.20
2017,10,17,23,23,3.20
2017,10,17,23,24,3.20
2017,10,17,23,29,3.20
2017,10,17,23,30,3.20
2017,10,17,23,31,1.60
2017,10,17,23,32,1.60
2017,10,17,23,34,3.20
2017,10,17,23,35,1.60
2017,10,17,23,36,3.20
2017,10,17,23,37,4.80
2017,10,17,23,38,3.20
2017,10,17,23,39,4.80
2017,10,17,23,40,3.20
2017,10,17,23,41,3.20
2017,10,17,23,42,3.20
2017,10,17,23,43,3.20
2017,10,17,23,44,4.80
2017,10,17,23,45,3.20
2017,10,17,23,46,3.20
2017,10,17,23,47,1.60
2017,10,17,23,49,1.60
